Regional Weather Roundup
Issued by NWS Midland/Odessa, TX

Skip options and go directly to product.
Home | Oldest Version | Previous Version | Current Version | All | Text Only | Save Text | Print | Product List | Glossary On

Skip product version selection by date and time.   
752
ASUS44 KMAF 251310
RWRMAF
MIDLAND AREA WEATHER ROUNDUP
NATIONAL WEATHER SERVICE MIDLAND TX
800 AM CDT FRI JUL 25 2014

...IN SOUTHWEST TEXAS AND SOUTHEAST NEW MEXICO...

CITY           SKY/WX    TMP DP  RH WIND       PRES   REMARKS
ALPINE         CLEAR     67  56  67 S3        30.25R
ANDREWS        FAIR      73  62  66 S6        30.12R
ARTESIA        CLEAR     72  50  46 SW3       30.12R
BIG SPRING     MOSUNNY   74  62  65 S7        30.12S
CARLSBAD       CLEAR     75  52  44 SE5       30.09R
DRYDEN           N/A     78  65  63 NE7       30.06R
FORT STOCKTON  SUNNY     73  61  65 S9        30.10R
GUAD PASS      CLEAR     72  52  49 W8        30.27
HOBBS          SUNNY     72  59  64 S7        30.14
MARFA          CLEAR     61  54  77 CALM      30.24S
MIDLAND AIRPK  MOSUNNY   77  62  60 S7        30.11R
MIDLAND INTL   MOSUNNY   75  62  64 S7        30.10R
ODESSA         MOSUNNY   75  62  64 S7        30.11R
PECOS          CLEAR     70  58  66 E3        30.07R
PRESIDIO       FAIR      78  56  46 CALM      30.08S
SEMINOLE       MOSUNNY   72  60  66 S3        30.13S
SNYDER         SUNNY     71  62  73 S5        30.09R
WINK           SUNNY     75  63  66 SE9       30.08R
$$
...OTHER STATIONS IN TEXAS...

CITY           SKY/WX    TMP DP  RH WIND       PRES   REMARKS
ABILENE        SUNNY     76  66  71 S6        30.06R
AMARILLO       SUNNY     74  61  63 S15       30.08S
AUSTIN         MOSUNNY   76  72  87 CALM      30.04R
BROWNSVILLE    SUNNY     79  77  94 SE3       30.00R
CORPUS CHRISTI MOSUNNY   80  76  87 S5        30.01R
DALLAS FTW     MOSUNNY   78  71  79 S6        30.01S
DEL RIO        SUNNY     77  70  79 E9        30.01S
EL PASO        PTCLDY    77  52  41 CALM      30.13R
HOUSTON INT    MOSUNNY   79  76  90 SW3       30.04R
LUBBOCK        MOSUNNY   76  60  57 SW14      30.10S
SAN ANGELO     SUNNY     73  65  75 S6        30.07R
SAN ANTONIO    CLOUDY    79  75  87 S6        30.05R
WACO           SUNNY     77  71  82 S8        30.02R
WICHITA FALLS  NOT AVBL
$$
...OTHER LOCATIONS IN NEW MEXICO...

CITY           SKY/WX    TMP DP  RH WIND       PRES   REMARKS
ALAMAGORDO     CLEAR     68  46  45 SE5       30.17R
ALBUQUERQUE    PTCLDY    72  42  34 SE6       30.22R
CANNON AFB     SUNNY     67  60  76 SW6       30.16R
CLOVIS         NOT AVBL
HOLLOMAN AFB   CLEAR     71  46  39 E7        30.14R
ROSWELL        CLEAR     73  50  44 S7        30.11R
RUIDOSO        CLEAR     64  45  48 W6        30.37R
SANTA FE       CLEAR     63  47  55 CALM      30.28R
TRUTH OR CONSE CLEAR     69  46  43 VRB3      30.18R
TUCUMCARI      SUNNY     76  54  46 S18       30.08S
$$

USA.gov is the U.S. government's official web portal to all federal, state and local government web resources and services.